Wind_Speed
11 11 12 12 12 13 13 13 13 14 14 14 14 13 13 13 12 12 12 12 12 12 13 13 14 15 15 16 16 16 16 15 14 13 13 14 13 13 13 14 14 13 13 14 14 14 15 15 16 17 17 16 16 16 16 17 18 17 17 17 17 17 17 19 16 17 24 24 20 23 25 25 28 28 26 29 33 31 27 24 22 23 24 24 26
11 11 12 12 12 13 13 13 13 13 14 14 13 13 13 13 12 12 12 12 12 13 13 14 14 15 16 16 16 16 16 15 15 14 14 14 13 13 14 14 14 14 14 15 15 15 15 15 16 17 17 17 17 16 17 18 19 19 18 18 18 18 17 19 19 18 24 27 24 23 24 24 24 26 26 27 32 35 35 31 25 22 23 24 23
11 11 12 12 12 12 13 13 13 13 13 13 13 13 13 12 12 12 12 12 12 13 14 14 14 15 15 16 16 17 17 16 15 14 14 14 14 14 14 14 14 15 15 15 16 16 16 16 17 18 18 18 18 17 17 19 20 19 20 19 19 20 19 19 20 20 22 27 28 25 24 24 24 25 27 27 28 30 32 35 32 26 24 24 23
11 12 12 13 13 13 13 12 12 12 12 13 12 12 12 12 12 12 12 12 12 13 13 14 14 15 15 16 17 17 17 17 16 15 15 14 14 14 14 14 15 15 15 15 16 16 16 17 18 19 19 19 19 19 19 21 22 20 21 21 21 22 22 20 21 22 22 25 28 27 25 26 26 25 26 27 28 27 28 31 32 30 28 26 23
12 13 13 13 13 13 13 12 12 12 12 12 12 12 12 11 11 11 12 12 12 13 13 13 14 15 15 16 17 18 18 18 17 16 15 14 14 14 14 14 14 15 15 15 16 16 17 17 18 19 19 20 20 20 21 23 23 22 22 23 23 23 24 24 23 23 24 25 28 29 27 26 27 26 24 25 26 27 27 27 27 28 32 31 27
13 13 13 13 13 12 12 12 12 11 11 11 11 11 11 10 10 11 11 12 12 12 12 13 14 15 15 16 17 18 19 19 18 18 16 14 14 13 13 14 14 14 15 15 16 16 17 17 18 19 20 20 21 22 23 24 24 24 25 25 25 25 26 26 25 25 25 26 27 29 28 26 26 25 24 23 25 26 27 27 26 27 32 33 29
13 13 13 12 12 12 11 11 10 10 10 10 10 10 10 10 10 11 11 11 12 12 12 13 13 14 14 16 17 18 20 21 20 19 16 14 13 13 13 14 14 14 15 15 16 16 17 17 18 19 20 21 22 24 24 25 26 26 27 26 26 26 26 26 25 25 25 25 25 26 27 26 25 25 25 25 25 25 25 26 26 25 28 30 28
13 13 12 12 12 11 10 10 10 9 9 9 9 10 10 10 10 10 10 11 12 12 12 12 13 13 14 15 17 19 20 22 23 21 16 13 13 13 13 14 15 15 15 15 16 17 18 18 18 19 19 20 23 24 24 26 28 28 28 27 27 27 27 26 25 24 24 24 24 24 26 26 24 24 25 24 23 22 22 24 25 25 25 27 28
13 12 12 12 11 11 10 9 9 9 9 10 10 10 10 10 10 10 10 11 11 11 11 12 12 13 14 15 17 18 20 22 24 22 17 14 13 13 13 14 15 15 16 16 16 17 18 18 18 19 19 20 23 24 26 27 28 29 29 29 29 28 27 26 25 25 25 24 24 24 24 25 24 24 24 24 23 23 25 26 28 28 27 28 29
13 12 12 11 11 11 10 10 9 9 9 10 10 10 10 10 10 11 11 11 11 11 11 12 12 13 14 14 16 18 20 22 23 21 18 14 13 13 14 14 14 15 16 16 16 18 19 19 20 20 20 22 25 26 28 29 29 29 29 29 29 28 28 28 27 26 27 25 24 24 24 24 25 25 25 26 26 26 27 27 26 27 26 24 27
13 12 12 12 11 11 10 10 10 10 10 10 10 10 10 10 10 11 11 11 11 11 12 12 12 13 13 14 16 17 20 23 22 21 19 17 14 13 14 14 14 15 16 17 17 19 20 21 21 21 21 24 27 27 29 31 31 30 29 29 28 28 27 28 28 28 28 27 27 26 25 26 28 28 27 28 28 26 26 26 26 26 25 18 17
13 12 12 12 11 11 10 10 11 10 10 10 10 10 11 11 11 11 11 11 11 11 12 12 12 12 13 14 15 17 20 23 23 21 19 18 16 14 13 14 14 15 17 17 18 20 20 21 21 21 23 25 26 28 30 31 31 30 29 29 29 27 26 27 28 29 29 30 30 29 27 28 29 29 28 28 29 28 27 28 27 27 27 22 17
13 13 12 12 11 11 11 11 11 11 11 10 10 11 12 12 12 11 11 11 11 12 12 12 12 12 12 13 15 17 21 23 23 22 19 17 17 16 14 14 15 16 17 18 19 20 20 21 21 22 24 25 26 29 31 31 30 29 28 29 28 28 28 28 28 27 28 29 30 29 28 28 30 31 31 30 31 32 30 29 29 28 28 28 24
14 13 13 12 12 11 11 12 12 11 11 11 11 12 12 12 11 11 11 11 11 12 12 12 13 12 11 12 14 17 21 24 24 22 18 17 17 16 14 15 15 16 17 17 18 20 21 21 22 23 24 24 26 30 32 30 29 28 28 28 28 28 29 29 27 27 26 26 28 30 31 31 31 33 35 34 33 32 32 31 30 30 31 32 31
14 14 14 13 12 12 12 12 12 12 12 12 12 12 12 11 10 10 10 11 11 12 12 12 12 12 11 11 12 15 19 23 24 24 19 17 17 16 13 14 15 16 17 18 18 19 21 21 22 23 23 24 27 32 34 31 28 27 28 29 29 28 28 28 28 28 28 27 29 33 34 34 34 35 36 36 35 34 35 35 36 36 35 35 35
15 15 14 14 13 13 13 13 13 12 12 12 12 12 11 10 10 10 10 11 11 11 11 12 12 13 12 11 11 13 17 20 23 24 22 17 16 16 13 14 15 15 16 18 18 18 20 21 22 23 22 24 29 33 36 32 27 26 29 30 29 29 28 29 28 28 29 30 31 33 34 35 36 36 36 37 36 36 36 36 35 34 31 29 29
16 16 15 14 14 13 13 13 13 13 12 12 12 11 10 10 10 10 10 10 10 11 11 11 12 13 13 12 11 11 15 20 21 23 23 20 16 15 15 14 14 15 16 17 17 18 18 19 22 24 22 25 30 34 36 33 27 26 29 30 30 30 30 29 27 28 30 31 32 33 33 34 34 34 33 33 33 32 34 34 31 27 25 20 18
17 17 16 15 14 13 13 13 13 13 12 12 11 10 10 10 10 9 10 10 10 10 10 10 10 11 12 13 12 11 13 18 20 21 23 22 18 16 15 15 15 15 16 16 16 18 18 18 22 25 25 28 31 34 36 33 27 26 30 30 30 32 33 30 29 30 31 30 31 31 31 32 32 32 31 30 30 29 29 31 29 24 23 18 15
18 17 16 15 14 13 13 13 13 13 12 12 11 10 10 9 9 9 9 9 9 9 9 9 9 9 10 11 13 12 12 15 19 20 21 22 20 17 15 16 15 15 16 16 15 16 17 16 21 26 27 29 31 32 35 33 27 26 30 30 29 32 33 30 30 34 33 32 32 32 30 30 31 31 32 30 28 26 26 27 27 24 23 21 19
18 18 17 15 14 13 13 13 13 12 12 11 10 10 9 9 9 8 8 9 9 8 8 8 8 9 9 10 11 13 13 14 17 19 20 21 21 18 16 16 16 15 16 16 15 16 17 16 19 25 27 28 30 30 32 33 27 25 28 29 29 33 32 28 30 34 33 31 32 32 30 30 30 32 35 34 29 26 26 25 25 23 22 22 23
19 18 16 15 15 14 13 13 13 12 11 11 10 9 9 9 9 9 9 8 8 7 7 7 7 8 8 8 9 10 12 13 15 17 18 19 20 19 17 16 16 15 16 16 14 15 17 17 18 24 27 28 29 28 30 32 28 25 27 28 32 35 33 28 30 32 31 31 32 32 33 35 37 39 40 37 32 29 29 27 23 21 20 21 21
19 17 17 16 15 14 14 13 12 11 10 10 10 9 9 8 8 8 8 8 8 7 7 7 7 7 7 8 8 7 8 12 15 16 17 18 19 19 17 16 16 15 15 15 14 15 17 17 19 24 28 29 28 26 27 29 27 27 29 30 33 37 34 29 30 30 30 32 33 35 38 41 44 44 43 40 35 32 32 30 24 19 17 18 19
18 17 17 16 15 15 14 12 11 11 10 10 10 9 9 8 7 7 7 7 7 8 8 7 8 8 7 7 8 7 6 9 14 17 18 18 18 19 17 16 16 15 14 14 14 14 16 17 20 25 27 28 28 25 24 26 26 29 32 30 30 33 33 31 32 31 31 33 34 38 42 43 42 42 42 42 38 34 33 30 23 18 16 14 14
18 17 16 16 15 15 14 12 11 10 10 9 9 9 8 7 6 6 5 6 7 7 8 8 8 8 8 7 7 8 8 8 11 16 19 18 17 17 17 16 16 15 13 14 13 14 16 19 23 26 26 27 28 24 21 24 26 28 31 30 28 29 29 29 32 33 32 33 36 39 41 40 39 39 41 41 37 34 33 30 24 19 16 11 7
18 17 16 16 15 14 13 12 11 10 9 8 8 7 6 6 6 6 5 6 6 7 7 7 7 7 7 7 7 8 9 9 11 13 17 17 15 16 16 16 17 16 13 14 15 15 18 21 23 25 24 25 26 23 20 23 26 27 29 30 29 28 28 29 32 33 32 33 36 39 39 39 38 38 38 37 33 31 32 32 28 24 20 14 8
18 17 16 15 14 14 13 11 10 9 8 7 7 6 5 5 5 5 6 6 6 6 6 7 7 7 7 7 7 7 8 10 12 13 16 16 15 15 15 16 18 16 14 16 18 16 17 19 21 22 22 23 24 22 21 23 26 26 27 29 28 28 29 29 30 33 34 34 36 39 39 39 39 39 38 35 32 32 34 32 29 28 25 18 13
18 17 16 15 14 13 12 11 10 9 7 6 6 5 4 4 4 4 5 5 5 5 6 6 6 7 7 7 7 7 8 10 13 14 16 16 16 15 15 16 17 16 16 18 18 16 16 18 19 20 21 21 22 21 20 22 24 25 26 27 27 27 29 29 29 32 35 35 36 39 40 39 39 40 40 36 32 33 34 32 28 28 26 19 15
17 16 16 15 13 12 11 10 10 9 7 6 6 5 4 3 4 5 5 4 4 4 5 5 5 6 6 7 7 7 8 10 12 13 15 16 16 16 15 16 17 17 17 18 17 16 16 16 18 19 20 21 22 21 21 23 24 25 26 27 27 28 29 30 29 30 32 34 36 40 41 40 39 40 38 36 33 32 33 31 28 28 27 19 16
17 16 15 14 13 12 11 10 9 8 7 7 5 4 4 3 3 4 4 3 3 4 3 4 5 5 5 6 7 7 8 9 10 11 13 14 15 15 15 15 16 16 16 16 15 15 16 16 17 19 20 21 22 22 23 24 24 25 27 28 29 28 28 30 30 29 31 33 34 36 39 38 37 38 37 35 34 34 34 31 27 27 28 23 20
16 15 14 13 12 12 11 10 9 8 7 7 6 5 5 4 4 4 3 2 3 4 4 3 3 3 3 4 5 6 7 7 8 10 11 12 13 13 13 14 15 15 16 16 15 14 15 16 17 18 19 20 21 21 23 24 25 27 29 29 28 28 28 29 30 30 31 33 33 35 37 36 35 36 37 35 34 34 34 33 29 29 30 27 24
16 15 14 13 12 12 11 10 9 8 8 7 7 6 7 6 5 4 3 2 2 1 2 2 2 2 2 2 4 6 7 7 8 10 11 12 12 12 12 13 16 16 17 16 15 14 15 16 16 18 19 19 19 20 22 24 26 26 27 28 28 28 28 30 31 30 30 32 34 36 37 36 35 36 38 37 34 32 33 33 31 30 31 29 27
15 14 14 13 12 12 11 10 10 9 8 8 7 6 6 7 7 6 5 3 2 2 1 2 2 1 1 2 3 5 6 7 8 9 11 12 13 13 12 12 15 18 17 15 13 14 15 16 16 17 18 19 19 19 20 23 25 24 25 27 29 28 28 30 31 30 29 29 31 34 35 36 36 36 37 37 34 31 32 32 31 30 29 28 29
15 14 14 13 13 12 11 10 10 10 9 8 8 6 6 6 6 7 7 5 4 4 3 2 3 3 4 4 4 4 6 7 8 9 10 12 13 14 13 12 13 16 15 14 14 14 15 16 16 17 18 18 19 19 19 21 22 23 23 26 27 27 28 29 30 30 29 29 30 31 32 33 34 33 34 36 34 33 32 31 29 30 29 28 28
16 14 14 13 12 12 12 11 10 10 10 9 8 8 6 5 4 5 6 7 7 7 6 5 3 3 4 5 6 6 6 7 8 9 10 12 13 13 12 11 12 12 12 12 14 14 14 16 16 16 17 18 18 19 19 20 21 22 23 24 25 26 28 29 30 30 29 29 30 31 32 32 32 32 33 35 35 33 33 32 30 30 30 28 28
16 14 14 14 12 12 11 11 10 10 10 10 9 8 7 6 5 4 5 5 5 5 6 7 5 2 4 5 6 7 7 7 8 9 10 11 12 12 11 11 11 11 11 12 14 14 14 15 16 16 17 18 18 18 19 19 20 21 23 23 24 26 27 28 30 30 29 28 30 31 31 32 33 32 33 35 35 34 33 32 31 31 31 30 29
16 15 15 15 14 12 11 11 11 11 11 10 9 8 7 7 6 6 5 5 4 4 4 4 6 5 5 6 5 6 7 7 8 8 8 9 11 11 11 10 11 11 12 12 13 14 13 14 16 16 16 17 17 17 18 19 19 20 22 22 23 24 26 27 29 29 28 27 28 30 30 31 32 33 34 34 35 34 33 32 32 32 33 32 30
16 15 14 15 15 13 12 12 11 11 10 10 10 9 8 7 7 6 6 5 5 4 4 4 5 7 8 7 5 4 7 8 8 7 7 8 9 9 9 9 10 11 11 12 12 13 13 13 15 15 16 16 17 17 17 18 18 19 20 21 21 23 25 26 27 28 27 27 27 29 30 30 31 32 32 33 33 34 34 32 32 33 33 32 31
16 14 13 14 15 14 13 12 12 12 11 11 10 10 9 8 8 7 6 6 5 5 6 5 5 6 6 6 5 4 6 8 9 8 7 7 8 8 8 8 9 9 10 11 11 12 13 13 14 15 15 16 16 16 17 18 18 18 19 20 21 22 23 24 26 27 27 26 27 28 28 29 29 30 31 31 31 32 33 32 31 31 31 31 29
15 14 14 14 15 15 14 13 13 13 13 12 11 10 9 9 9 8 8 7 7 7 7 7 6 7 6 5 5 5 6 7 8 7 6 6 7 7 7 8 8 8 9 10 10 11 12 12 13 13 14 15 16 16 16 17 17 17 18 19 20 21 22 23 25 27 26 25 26 26 27 27 27 28 29 29 28 29 30 31 31 30 28 27 28
14 14 15 17 17 16 14 14 13 13 14 14 12 11 11 10 10 10 9 8 8 8 7 7 7 7 6 5 5 6 7 7 7 6 6 6 7 7 7 7 7 8 8 9 9 10 11 11 12 12 13 14 15 15 15 16 16 17 17 18 19 20 20 21 23 25 25 24 24 25 26 26 26 26 27 27 26 26 27 28 30 30 28 26 27
13 12 13 16 18 17 15 15 14 13 14 14 13 12 12 11 11 11 10 9 9 9 8 9 8 7 7 7 8 9 9 9 9 8 7 7 7 7 7 7 7 7 7 8 8 9 9 10 11 11 12 12 14 14 14 15 16 16 16 17 18 18 19 20 22 24 24 23 23 24 25 25 24 24 25 26 26 25 25 26 27 28 28 26 26
14 12 12 14 17 18 16 16 15 14 14 14 13 13 12 11 12 12 11 11 11 10 10 10 9 8 8 9 10 11 10 10 10 9 8 8 8 7 7 7 7 7 7 7 7 7 8 9 9 10 11 11 12 12 13 14 15 15 16 16 17 18 19 19 20 22 24 23 22 23 23 23 23 23 23 24 24 24 24 24 25 25 26 26 25
14 13 12 13 16 17 17 16 16 15 15 14 13 13 12 12 12 12 12 12 12 12 11 11 10 9 9 9 10 11 11 11 11 10 9 8 8 8 8 8 7 7 7 7 7 7 7 8 8 9 10 10 10 11 11 12 13 14 15 15 16 16 18 18 19 20 22 23 22 21 22 22 22 21 21 22 22 22 23 23 23 23 24 25 24
14 14 14 13 15 16 16 16 16 16 15 14 13 13 13 13 13 13 13 13 12 12 12 12 11 10 10 9 10 11 11 11 11 10 9 8 9 9 9 8 8 7 7 7 7 7 7 7 8 8 9 9 9 10 10 10 11 12 13 14 15 15 16 17 18 18 20 21 21 21 21 21 20 20 20 20 20 20 21 21 21 21 21 22 22
15 15 15 14 14 15 15 16 16 16 15 14 14 14 14 14 14 14 13 13 13 13 13 12 12 11 11 10 11 11 11 11 11 10 10 10 9 9 9 8 8 8 8 8 8 7 7 8 8 8 8 8 9 9 9 9 9 10 11 12 13 14 15 15 16 16 18 19 19 19 20 20 19 20 20 19 18 18 19 19 20 19 19 19 20
16 16 16 16 15 15 15 15 16 16 15 15 15 15 15 15 15 15 15 14 13 13 13 13 12 12 12 12 12 12 12 12 11 11 11 11 10 10 9 9 9 9 9 9 9 9 9 9 9 8 8 8 8 9 9 8 8 9 9 9 10 12 13 14 14 14 16 17 17 17 19 19 18 19 20 19 17 17 17 17 18 18 17 16 16
16 16 17 17 16 16 16 16 16 16 16 16 16 16 15 15 15 15 15 15 15 15 15 14 14 13 13 13 13 13 13 13 12 12 12 12 12 11 10 10 10 10 10 10 10 10 10 10 10 9 9 9 8 8 9 8 8 8 7 7 8 10 12 14 14 13 14 15 15 16 17 17 17 17 18 18 17 17 16 15 15 16 15 15 14
16 16 17 17 17 17 16 16 16 16 16 16 16 16 16 16 16 16 16 16 16 16 16 16 16 15 15 14 14 14 14 14 13 13 13 13 13 13 12 12 11 11 11 11 11 11 11 11 11 11 11 10 10 9 9 8 8 7 6 6 7 10 12 13 12 12 13 14 13 13 15 16 16 16 17 17 17 16 16 15 14 14 13 13 14
17 17 17 17 18 17 17 16 16 16 16 16 16 16 16 17 17 17 16 16 16 16 17 17 17 17 16 16 15 15 15 15 15 15 15 14 14 14 13 13 13 13 12 12 12 12 12 12 13 12 12 11 11 10 10 9 9 8 6 6 8 10 11 11 11 11 13 13 11 11 13 15 15 15 16 16 15 15 15 15 14 13 12 12 13
18 17 17 17 18 17 17 17 17 16 16 16 15 15 15 16 16 17 17 17 17 16 16 17 17 17 17 17 16 16 16 16 16 16 16 15 15 15 15 15 14 14 14 14 13 13 13 13 13 14 14 13 13 12 12 11 10 9 8 9 10 10 9 9 10 10 11 11 10 10 11 12 13 14 15 15 15 14 15 15 14 13 11 11 11
19 18 18 18 17 17 17 17 17 17 17 16 15 15 14 15 15 16 16 16 17 17 17 17 17 17 18 18 17 17 17 17 17 17 17 17 16 15 15 15 15 16 16 15 15 15 14 14 14 15 15 14 14 14 13 13 12 12 12 12 11 10 9 9 9 9 9 10 9 8 9 10 11 11 13 14 15 14 13 13 13 12 11 10 10
Wind_Direction
99 95 92 91 88 85 85 85 84 85 86 86 87 86 84 84 82 79 77 71 68 65 60 56 52 50 48 45 42 38 35 33 31 30 30 28 26 23 19 18 18 16 13 12 12 10 6 6 6 3 360 357 353 349 346 344 340 335 332 329 324 322 321 314 307 302 302 303 301 299 300 299 297 295 296 297 293 287 277 264 251 246 245 242 241
101 98 96 94 90 89 89 88 87 86 86 85 84 83 81 79 79 78 74 70 66 63 58 55 53 50 48 44 40 37 33 31 29 27 26 24 23 21 18 17 17 16 15 13 12 11 8 7 7 4 360 357 354 351 347 344 340 334 332 330 324 320 320 315 309 305 304 305 305 303 303 301 296 294 296 296 294 291 288 281 264 246 243 242 238
104 102 100 97 96 96 93 91 90 87 85 84 82 81 79 77 76 74 72 68 64 60 57 55 52 49 46 42 38 34 30 28 25 24 23 20 19 18 16 16 15 15 14 13 11 10 9 8 7 4 360 357 355 352 349 345 340 335 331 329 324 319 318 315 310 306 304 304 305 304 305 303 299 297 296 294 292 290 287 285 282 269 252 243 238
108 105 104 102 100 99 96 94 91 89 86 85 83 81 79 77 74 72 70 67 62 59 56 53 50 47 44 40 37 32 29 25 22 20 19 17 16 16 15 15 15 15 14 12 11 9 8 8 7 4 360 358 355 352 350 346 341 336 332 329 325 320 318 315 310 306 303 301 302 303 304 303 298 297 299 296 291 286 281 281 283 278 265 254 247
110 109 108 106 103 101 99 96 93 91 89 86 85 83 80 78 75 72 70 66 62 59 55 52 49 47 45 40 36 32 27 23 20 18 15 14 14 14 14 14 14 14 13 12 12 9 8 8 5 4 0 357 355 351 348 346 341 337 333 329 325 321 318 315 311 307 303 301 301 301 302 301 299 298 298 299 296 289 283 279 275 274 271 262 252
112 111 110 109 107 105 101 99 97 94 92 89 86 84 81 80 77 74 70 67 64 60 57 54 50 49 46 41 36 32 27 24 20 16 12 11 13 14 14 13 13 14 13 12 11 9 8 8 4 3 1 357 353 349 345 344 341 336 332 328 324 321 317 314 312 309 305 302 301 301 301 301 302 301 299 299 298 293 287 281 275 274 271 260 248
115 111 111 110 108 107 104 101 100 96 94 92 89 87 85 82 80 76 72 68 65 61 59 56 52 50 47 42 38 34 29 25 20 15 11 10 12 13 13 13 13 13 12 11 11 10 8 7 4 1 359 356 351 347 344 342 338 333 330 327 324 320 316 313 311 309 306 304 303 301 302 301 300 300 301 300 297 291 286 282 277 272 267 258 249
117 112 112 110 110 109 106 102 101 97 95 94 92 91 87 84 82 78 74 70 65 62 61 59 56 53 49 45 41 36 32 28 23 18 13 10 13 14 13 14 13 12 11 10 10 10 8 5 2 358 355 353 350 345 342 338 334 330 327 325 322 319 316 312 310 309 306 305 304 302 301 302 301 301 302 302 300 295 292 291 289 286 278 266 254
121 116 114 112 112 112 108 105 101 98 97 96 94 93 89 85 83 80 76 72 67 64 63 61 59 54 51 49 45 39 34 31 30 28 23 15 13 14 15 15 13 11 10 10 9 8 6 3 358 354 352 350 348 344 340 336 331 327 324 323 321 318 316 313 309 308 306 304 303 303 302 301 302 303 303 302 300 299 299 297 294 294 292 283 270
125 121 117 114 116 115 110 108 104 100 98 96 94 94 91 89 85 81 78 73 69 67 64 62 59 55 53 53 48 42 35 33 35 38 38 35 24 16 16 16 15 14 11 8 7 5 3 360 356 353 351 349 348 345 340 335 330 327 324 322 321 317 313 312 309 307 307 304 302 302 301 298 299 300 299 299 299 297 296 294 291 292 293 292 287
129 125 121 119 119 116 111 108 104 100 98 96 95 94 92 91 88 84 81 75 72 70 66 64 60 56 57 55 50 44 36 33 36 39 44 49 40 23 17 18 17 17 13 10 6 3 1 358 355 353 352 349 347 345 341 336 332 329 328 327 325 319 313 311 310 308 306 303 300 299 296 294 295 296 296 297 297 295 294 294 293 292 290 286 287
132 128 125 123 120 116 112 109 104 101 99 97 96 95 93 92 89 86 83 78 75 72 68 65 61 59 60 57 52 44 35 34 36 38 42 48 46 33 20 18 19 17 14 12 8 5 1 357 355 354 351 349 348 346 342 337 334 333 333 332 330 326 321 315 310 307 304 302 301 299 295 293 294 294 294 294 295 295 293 291 289 287 286 281 277
134 130 127 124 120 116 112 109 105 102 100 97 97 96 95 93 90 87 85 82 79 74 69 66 62 60 60 59 54 44 36 33 33 36 41 43 43 38 24 19 20 16 14 12 9 7 4 359 357 355 352 350 350 349 344 340 337 337 336 336 333 330 327 323 316 310 306 304 303 301 298 296 294 292 292 292 293 293 290 287 283 281 279 277 274
135 132 128 124 120 117 113 109 105 102 100 99 99 97 95 93 91 89 87 84 80 75 70 66 62 60 60 60 56 44 37 34 32 33 38 40 39 36 26 20 21 18 16 14 11 10 7 3 359 356 354 353 353 352 348 342 339 340 339 337 336 334 331 329 325 320 314 309 305 302 301 298 293 292 292 291 288 287 286 284 281 278 275 275 277
135 132 128 125 122 118 114 110 106 104 102 101 99 97 96 94 92 90 88 84 80 77 73 68 63 60 58 59 58 47 36 32 31 31 33 37 37 32 23 20 21 19 17 15 13 11 10 7 2 358 356 354 355 357 354 346 340 341 341 339 338 337 336 333 329 324 319 313 308 305 303 300 297 295 294 292 289 286 285 283 279 277 275 274 275
135 133 129 126 123 119 116 112 109 107 105 103 100 98 97 95 93 91 90 86 84 81 76 71 65 60 57 56 57 50 34 27 28 29 28 33 33 26 19 18 19 18 16 14 12 11 10 8 4 1 357 354 357 1 0 352 344 343 344 342 340 340 338 336 332 329 325 319 315 312 309 307 304 302 299 297 295 292 290 285 279 274 269 266 268
136 134 131 128 124 121 119 115 112 110 107 104 102 99 98 97 94 93 92 90 88 84 79 75 68 61 57 53 51 49 36 27 27 28 27 29 27 18 15 16 15 14 14 11 10 9 8 7 6 4 358 357 0 4 4 358 350 347 347 344 343 343 340 339 337 334 330 326 323 321 319 316 315 311 307 302 300 300 294 287 281 272 259 254 257
138 136 132 129 125 123 121 117 115 112 108 106 104 102 100 98 95 94 94 92 90 86 82 79 73 65 60 53 48 48 40 29 27 28 27 28 27 19 14 14 12 12 11 7 6 7 5 4 7 7 3 2 5 8 6 1 353 351 351 347 345 345 342 340 338 337 334 332 332 331 329 327 324 320 315 309 307 306 296 287 285 271 252 245 249
139 137 133 131 128 124 121 118 115 113 110 108 106 104 101 98 98 97 94 91 89 87 84 80 75 68 63 56 49 47 42 31 28 28 26 26 27 22 15 13 11 10 8 2 1 4 3 359 4 8 9 9 9 9 8 3 356 354 355 353 348 344 341 337 337 338 337 336 336 335 334 334 331 326 324 320 314 311 302 294 291 277 254 245 247
139 137 134 132 129 125 121 118 115 114 112 110 107 105 102 100 99 95 91 89 87 87 85 81 77 70 63 60 53 47 43 33 27 28 27 26 26 23 19 14 8 8 7 1 357 1 1 355 358 6 10 10 7 6 7 5 0 356 357 355 349 343 340 337 338 340 339 336 335 334 332 334 334 333 333 330 323 317 314 306 297 283 263 249 246
139 138 137 133 129 126 123 119 116 114 113 111 109 106 104 101 98 94 90 89 88 88 87 80 76 71 61 57 54 47 39 31 26 25 25 26 26 24 22 14 3 358 2 2 359 359 360 355 355 1 5 4 2 0 1 2 2 358 356 355 352 351 349 342 340 342 341 338 338 337 335 337 340 341 339 335 328 325 323 317 307 293 276 260 254
141 140 138 135 132 128 124 121 119 116 115 114 111 109 105 101 100 98 95 93 90 87 83 74 70 69 61 55 51 41 26 18 19 22 24 26 27 24 22 17 4 357 359 2 360 359 1 357 353 357 0 359 356 354 354 357 358 357 356 354 355 359 359 350 344 345 344 342 341 339 340 342 342 341 340 336 332 330 330 326 317 306 289 268 261
144 142 139 136 133 131 128 125 122 120 120 119 114 110 107 103 103 106 104 99 92 84 78 73 67 63 59 52 45 40 27 7 6 10 15 18 20 19 18 17 10 2 359 358 356 357 358 353 348 351 354 354 351 350 351 353 353 354 356 355 353 356 358 354 350 349 345 343 343 341 342 343 341 338 337 336 334 332 333 334 330 322 312 288 264
144 142 141 139 136 135 133 130 127 126 124 121 115 111 110 108 107 108 105 96 87 79 73 68 64 58 54 51 41 34 32 16 2 2 5 7 7 5 5 7 7 2 356 351 349 345 344 345 346 348 349 348 348 347 348 350 351 352 353 354 353 353 353 352 351 351 347 344 343 343 342 342 340 337 337 336 334 334 337 341 342 340 340 332 304
147 145 145 144 142 141 139 136 135 134 130 124 119 116 117 115 107 102 97 88 79 76 70 63 59 55 48 44 39 31 27 22 12 3 2 2 359 356 355 354 356 356 350 343 340 337 337 341 344 346 346 346 347 348 349 350 351 352 353 356 357 356 355 352 350 349 346 343 343 343 343 342 342 341 341 339 340 343 346 347 351 359 6 5 357
150 149 148 147 146 145 143 143 141 140 138 133 128 125 123 117 107 96 91 85 76 72 67 60 56 53 44 36 33 30 25 22 16 7 3 1 358 355 353 350 350 353 348 341 339 338 337 340 342 344 345 346 348 349 350 351 352 353 355 357 358 356 355 353 349 346 345 343 343 343 344 344 345 348 349 348 348 351 353 353 354 1 7 11 14
154 153 151 150 150 149 148 148 146 145 147 147 140 136 132 119 105 93 86 83 79 74 68 59 50 44 39 32 26 27 28 23 16 9 4 1 358 355 354 351 351 352 349 343 341 339 337 339 342 345 347 349 351 352 353 353 354 353 354 356 356 355 353 351 346 344 345 346 345 345 345 347 350 353 354 354 353 355 358 358 359 3 6 9 17
158 157 154 153 155 155 153 156 157 155 158 162 156 148 142 128 105 89 77 66 68 71 64 58 49 36 31 29 21 19 26 25 17 8 3 360 358 356 355 354 352 349 347 344 339 336 338 340 345 349 351 353 356 357 357 357 356 354 354 355 354 354 353 350 348 345 346 347 347 348 349 351 353 354 354 354 357 359 0 1 5 8 9 13 22
163 160 159 159 161 160 160 165 169 166 164 169 168 154 146 143 120 101 87 73 80 87 76 59 45 27 21 27 23 20 22 18 9 4 4 3 1 358 355 355 353 348 349 349 340 335 341 347 349 351 354 356 358 359 359 358 355 355 357 357 355 354 353 353 351 348 347 347 347 349 351 352 352 353 354 356 359 2 3 5 10 14 14 18 25
168 166 166 167 167 168 170 173 177 177 174 174 174 165 161 161 146 132 130 118 101 99 100 92 64 30 17 21 16 11 10 6 358 358 1 3 3 359 357 0 0 357 357 359 350 341 345 350 351 354 355 357 359 359 357 357 355 355 357 358 355 354 355 354 351 348 347 348 348 351 352 352 351 353 356 357 360 4 7 8 13 18 20 21 23
172 173 175 174 173 177 180 179 182 187 186 184 184 179 175 173 164 161 169 175 160 130 114 116 88 48 25 352 339 334 336 344 352 353 352 354 356 355 353 358 3 4 2 358 350 347 350 351 352 355 357 357 358 357 356 358 358 356 356 357 356 355 356 355 352 350 348 349 352 353 353 353 353 354 357 360 1 4 9 11 14 19 21 22 23
177 177 178 178 180 187 190 185 187 192 192 193 195 193 190 186 177 174 181 196 202 206 219 230 240 269 294 308 317 312 312 326 338 342 343 344 345 346 344 346 355 2 3 357 348 348 353 354 353 355 357 356 357 356 354 357 359 356 355 357 357 357 357 356 354 353 350 350 353 353 351 353 356 356 358 2 5 7 10 12 15 19 20 22 25
183 181 181 181 184 192 197 194 192 195 197 196 198 200 204 201 185 175 176 186 202 214 223 236 252 260 265 278 291 289 295 310 321 327 333 335 336 339 342 343 349 355 358 357 352 352 355 355 355 356 356 356 356 355 353 354 355 355 354 356 357 357 357 356 356 355 352 352 355 353 350 353 357 359 1 5 8 11 13 13 16 20 21 23 26
188 186 186 187 187 192 198 199 197 198 199 198 198 201 205 208 203 191 185 189 197 205 207 209 228 270 273 273 279 286 293 301 308 315 322 326 332 338 340 339 343 349 351 353 354 355 355 356 355 355 356 356 355 354 354 353 354 355 354 354 356 356 356 356 357 356 353 355 357 355 354 356 359 2 7 10 10 13 16 16 18 22 24 24 26
193 193 194 197 196 195 198 201 200 200 199 198 199 200 199 197 200 209 213 213 213 214 209 201 195 225 288 286 278 283 289 292 299 304 309 318 331 337 335 335 344 351 353 355 357 355 355 357 357 355 356 356 355 354 355 354 355 356 355 353 355 357 356 356 357 355 354 357 358 356 357 360 2 6 12 14 14 15 18 20 21 23 26 27 28
198 197 198 203 207 205 202 202 202 200 199 199 199 199 200 201 202 208 216 223 231 242 241 216 204 224 265 276 275 286 288 286 294 300 304 321 336 334 327 334 347 351 350 355 357 354 354 358 358 356 356 356 355 355 356 355 355 356 355 353 355 357 357 356 356 355 355 358 359 358 0 3 4 8 14 18 18 18 20 23 25 25 27 30 34
200 200 198 201 207 209 206 203 202 200 199 201 202 201 202 204 210 216 220 221 228 244 257 252 236 239 245 240 245 286 299 293 293 293 297 320 333 324 319 332 344 345 348 353 354 352 354 358 358 357 357 357 355 355 355 355 355 356 354 354 356 357 356 356 357 357 357 360 1 1 4 5 6 10 16 20 20 21 22 25 27 28 30 32 35
202 204 203 201 203 207 207 203 200 199 200 205 209 209 209 211 214 220 226 229 232 244 253 255 255 254 247 230 226 261 287 286 281 275 276 295 308 307 313 330 338 339 344 349 350 350 352 355 357 357 357 357 356 355 355 355 355 354 354 354 355 356 356 357 359 359 359 2 4 4 5 7 8 11 16 21 21 21 24 28 30 31 32 33 34
203 207 208 206 204 206 207 204 200 202 206 211 214 214 215 219 223 225 231 234 234 240 249 253 252 257 260 250 240 253 273 281 281 280 283 294 302 306 315 326 331 335 340 342 346 349 350 352 355 357 357 357 357 355 355 355 354 353 353 354 354 356 358 359 360 359 359 1 3 4 4 6 9 11 14 20 22 22 23 29 33 34 34 35 36
203 206 211 213 211 208 209 207 205 206 209 214 218 219 219 223 228 231 235 238 239 243 250 254 256 257 255 249 252 265 279 287 287 286 289 293 297 304 312 318 323 329 332 336 342 346 348 349 351 353 355 356 356 355 355 355 353 352 353 355 355 355 357 359 358 357 357 358 0 2 2 4 9 11 12 16 20 21 23 28 33 36 37 39 41
204 203 208 212 210 206 207 210 211 212 213 216 222 224 224 227 232 235 239 241 242 246 249 251 258 259 248 247 261 270 273 277 280 282 284 285 287 292 301 308 314 318 322 328 335 340 342 345 346 347 350 351 351 353 354 353 353 353 353 355 355 354 356 358 358 356 355 355 358 2 2 2 7 11 12 14 18 21 23 27 32 35 37 40 43
205 201 200 203 203 204 208 212 214 217 219 221 225 229 231 234 234 237 241 243 244 249 251 251 257 257 244 246 264 270 265 264 271 275 277 279 280 283 289 294 299 304 312 317 321 327 333 336 337 340 343 344 345 349 351 351 353 353 352 353 355 354 354 356 356 355 355 355 356 359 1 2 5 9 11 13 18 21 21 23 28 34 36 38 41
206 204 201 199 201 206 212 214 216 219 221 222 225 230 235 240 239 238 240 241 242 247 250 251 256 257 244 242 257 265 260 257 261 264 266 270 275 278 280 283 286 293 300 304 305 311 319 324 327 331 336 338 340 343 346 348 351 352 352 353 354 353 353 354 355 354 354 354 353 356 360 2 4 8 9 12 17 20 20 20 23 30 35 38 38
206 207 207 203 202 208 214 216 218 221 221 223 229 234 239 242 241 239 239 239 240 243 247 248 253 254 246 237 243 252 252 251 253 256 260 264 268 272 274 276 278 281 286 291 294 296 301 308 313 317 323 329 333 335 338 342 346 349 351 352 352 354 354 352 352 352 351 350 351 355 359 1 4 6 7 8 13 18 19 19 21 24 32 38 36
209 210 211 210 209 211 214 216 220 222 223 225 231 236 239 239 239 238 239 240 241 242 245 247 249 250 248 245 242 244 246 248 249 252 257 261 263 266 268 270 272 273 275 279 281 282 286 292 297 301 308 316 323 327 331 335 340 346 351 352 355 356 354 351 351 351 350 350 353 356 357 360 3 6 5 5 10 15 17 18 20 22 26 34 38
212 213 214 215 216 217 218 219 220 222 225 229 232 235 236 235 235 236 237 239 241 244 246 247 247 246 246 248 248 247 248 250 251 251 253 256 260 263 265 266 268 269 270 272 271 271 273 276 280 286 293 300 308 316 320 324 333 340 346 353 358 357 356 359 359 354 350 352 355 356 357 359 1 3 3 3 6 10 12 14 18 22 24 29 37
214 217 219 220 220 220 221 223 223 226 229 232 234 236 237 236 235 235 236 238 241 244 247 249 250 249 247 247 248 247 246 248 251 253 254 255 257 259 261 261 261 263 266 268 266 265 266 268 269 271 276 282 290 299 305 312 321 328 335 349 356 356 2 11 11 2 358 1 359 356 359 1 0 1 3 3 4 6 7 9 14 19 22 26 29
219 220 221 222 221 221 222 223 225 228 232 234 236 237 238 239 239 238 238 239 240 242 245 247 249 251 250 249 249 249 249 249 250 252 254 255 256 257 257 256 255 257 261 264 262 261 262 263 263 264 267 270 274 280 288 294 303 311 317 328 336 343 358 12 15 12 13 13 3 357 2 5 2 0 1 0 1 4 5 5 8 12 17 23 23
222 222 222 220 220 222 224 224 226 228 230 234 236 236 236 237 239 240 241 243 243 243 245 246 248 249 250 250 250 250 251 251 252 253 255 257 257 258 258 254 250 250 254 259 260 259 258 258 258 258 259 260 263 268 273 277 283 290 294 299 312 327 344 357 4 10 17 16 5 357 2 5 2 2 3 1 360 3 5 3 3 5 10 17 19
222 222 222 221 221 224 227 228 230 232 233 234 236 235 234 235 236 238 241 244 246 246 247 247 249 250 251 251 252 252 253 253 253 254 256 258 258 258 258 255 250 246 248 253 257 257 256 257 256 255 254 255 257 259 262 266 269 270 270 280 297 313 326 334 343 353 4 10 6 358 357 1 2 2 3 3 1 2 4 3 0 0 7 14 14
222 222 223 224 225 227 229 230 233 235 235 234 236 237 237 237 239 240 242 243 245 247 248 249 250 251 252 252 253 253 254 256 257 257 259 261 261 260 259 256 251 246 247 250 253 254 254 255 254 253 252 253 253 253 254 257 259 257 260 273 289 300 305 313 324 331 341 353 359 351 346 354 359 359 1 4 3 359 359 0 358 358 4 9 9
Height
865 865 865 866 866 867 867 868 868 868 868 869 869 870 870 870 871 871 870 871 870 870 869 868 867 866 865 865 864 863 862 861 860 859 858 857 855 854 853 852 851 850 849 848 846 845 844 843 842 841 839 838 836 835 833 831 829 827 825 822 820 818 815 813 809 801 794 791 790 786 782 779 775 772 770 766 762 761 760 759 758 758 758 758 758
866 866 866 867 868 868 869 869 869 870 870 871 871 871 871 871 872 872 871 871 871 870 869 868 868 867 866 866 865 864 863 862 861 860 859 858 856 855 854 853 852 850 849 848 847 846 844 843 842 841 840 839 837 836 834 832 830 827 825 823 820 818 816 813 808 803 795 789 787 784 780 777 773 770 768 765 761 758 756 756 755 754 754 754 755
866 867 867 868 869 870 870 870 871 871 871 872 872 872 872 872 873 872 872 872 871 871 870 869 869 868 868 867 866 865 864 863 862 861 860 859 857 856 855 854 852 851 850 848 847 846 845 844 843 842 840 839 838 836 834 832 830 828 825 823 820 817 815 813 809 804 798 790 785 782 779 775 771 768 766 763 760 757 753 752 751 750 749 749 750
867 868 869 870 870 871 872 872 873 873 873 873 873 874 873 874 874 873 873 873 872 872 871 870 870 869 869 868 867 867 865 864 863 862 860 859 858 857 856 854 853 852 850 849 848 847 845 844 843 842 841 839 838 836 834 833 830 828 825 822 820 817 814 812 809 805 799 792 785 781 778 774 769 766 764 760 757 754 751 749 747 747 747 745 745
868 869 870 871 872 873 873 874 874 874 875 875 875 875 875 875 875 874 874 874 873 873 872 872 871 870 870 869 869 868 866 865 864 862 861 860 859 858 856 855 854 852 851 850 849 847 846 845 844 843 841 840 838 836 835 833 830 828 825 822 819 816 813 810 807 804 799 793 786 781 777 774 768 765 763 759 755 751 748 746 744 744 744 743 742
869 870 871 872 873 874 875 875 876 876 876 876 876 876 876 876 876 876 875 875 874 874 873 873 872 872 872 871 870 869 868 866 864 863 862 860 859 858 857 856 855 853 852 851 849 848 847 846 845 844 842 841 839 837 835 833 830 827 825 822 818 815 812 808 805 802 797 793 787 780 776 772 768 764 761 759 755 750 746 743 740 739 739 738 738
870 871 873 873 874 875 876 877 877 877 877 877 877 877 877 877 877 877 876 876 876 875 875 874 874 873 873 872 871 870 869 867 865 863 862 861 860 859 858 857 855 854 853 851 850 849 848 847 846 844 843 842 840 838 835 833 830 827 824 821 818 814 811 807 803 800 796 791 787 781 775 771 768 763 760 758 754 750 745 740 735 734 734 734 733
871 872 873 874 876 876 877 878 878 878 878 878 878 878 878 878 878 877 877 877 877 876 876 876 875 875 874 874 873 872 870 868 866 864 863 862 861 860 859 857 856 854 853 852 851 850 849 848 847 845 844 843 841 839 836 834 830 827 823 820 817 813 810 806 802 798 795 790 786 781 775 770 767 763 759 756 753 748 744 740 734 731 731 730 728
872 873 874 875 877 877 878 879 878 879 879 879 879 879 878 879 878 878 878 878 878 878 877 877 877 876 876 875 874 873 872 870 867 865 863 862 862 861 859 858 857 855 854 853 852 851 850 848 847 846 844 843 841 839 836 834 830 826 823 819 816 812 808 805 801 797 793 789 785 780 775 770 766 763 759 756 753 749 746 742 736 731 729 727 724
872 874 875 876 877 878 879 879 879 880 879 879 879 879 879 879 879 879 879 879 879 879 878 878 878 878 877 876 876 875 874 872 870 867 865 863 862 862 860 859 858 857 855 854 853 851 850 849 847 845 844 842 840 837 834 832 829 826 822 819 815 811 807 804 800 797 792 788 784 780 775 770 766 764 760 756 753 750 746 743 737 731 728 724 720
873 874 875 877 878 878 879 879 879 880 880 880 880 880 880 880 880 880 880 880 880 880 880 879 879 879 878 878 877 876 876 874 871 868 866 864 862 862 861 860 859 858 857 855 853 852 850 849 846 845 843 841 838 836 833 829 826 823 820 817 814 811 807 803 799 795 791 787 783 779 775 769 765 762 759 755 752 749 746 742 738 732 728 723 719
873 874 875 877 878 878 879 879 880 880 880 880 880 881 881 881 881 881 881 881 881 881 881 880 880 880 879 879 879 878 877 875 872 869 867 865 863 862 862 861 860 859 857 855 854 853 851 849 847 845 843 840 838 835 831 827 823 820 817 814 811 809 806 803 798 794 790 785 780 777 773 768 763 760 757 754 750 746 744 742 738 734 729 723 718
873 874 876 877 878 879 879 880 880 880 881 881 881 881 882 881 882 882 882 882 882 882 881 881 880 880 880 880 880 879 878 875 872 870 868 866 864 863 863 862 861 859 858 856 855 853 852 850 847 845 843 840 838 834 830 826 821 818 815 811 808 805 803 800 796 793 789 784 779 774 771 768 762 757 755 752 749 745 741 738 736 733 728 722 716
873 874 876 877 878 879 880 880 880 881 881 882 882 882 882 882 882 883 883 883 883 882 882 882 881 881 881 881 880 879 878 876 874 872 869 867 865 864 864 863 861 860 859 857 856 854 853 851 848 846 843 840 838 834 829 825 820 816 813 809 806 803 799 796 793 789 786 782 778 773 769 765 760 755 752 749 746 742 738 734 731 729 725 719 716
873 875 876 878 878 879 880 880 881 882 882 883 883 883 883 883 883 883 883 883 883 883 883 883 883 882 882 882 881 880 879 877 875 873 870 868 866 865 865 863 862 861 859 857 856 854 853 852 849 846 844 841 838 834 829 824 820 816 813 809 805 801 797 794 790 787 783 780 776 771 765 761 757 752 748 744 741 738 734 730 726 724 721 716 712
873 875 876 878 879 880 881 881 882 883 883 883 883 884 884 884 884 884 884 884 884 884 884 884 883 883 883 882 882 881 880 878 876 873 871 868 866 866 866 864 862 861 859 857 856 854 854 853 850 847 844 841 837 833 828 824 820 816 812 808 804 800 796 792 788 784 781 776 772 767 761 756 751 747 743 738 735 732 729 724 721 719 716 711 706
873 875 877 878 879 880 881 882 883 883 884 884 884 884 884 884 884 884 884 885 885 885 885 884 884 884 884 883 882 882 881 879 877 875 872 870 867 867 866 865 863 861 859 858 856 854 853 853 850 848 844 841 837 832 828 824 820 816 812 808 804 799 794 789 784 781 777 772 767 762 756 751 745 741 737 733 730 728 724 718 715 713 710 704 699
873 875 877 878 880 881 882 883 883 884 884 885 885 885 885 885 885 885 885 885 885 885 885 885 885 885 884 884 883 882 882 880 878 876 874 872 869 868 867 866 863 862 860 858 856 854 853 852 850 848 844 840 836 832 827 824 820 817 813 808 804 798 792 787 781 777 772 767 762 757 752 746 740 735 731 727 724 722 719 713 710 707 703 698 695
873 875 877 879 880 881 882 883 884 884 885 885 885 885 885 885 885 886 886 886 886 886 886 886 886 885 885 884 883 883 882 881 879 877 876 874 871 869 868 867 865 862 860 859 856 855 854 852 849 847 844 840 836 832 828 825 821 818 814 809 804 799 792 787 781 775 769 764 758 753 748 742 736 731 726 722 719 717 713 709 705 701 697 694 692
873 876 878 879 881 882 883 884 884 885 885 885 886 886 886 886 886 886 886 886 886 886 886 886 886 886 885 885 884 883 883 882 881 879 877 875 873 871 870 869 866 863 861 859 857 855 854 852 849 847 844 840 836 832 829 826 822 819 815 810 805 799 793 787 782 775 769 763 757 751 745 740 734 728 723 718 714 711 708 704 700 696 693 690 688
874 876 878 879 881 882 883 884 885 885 886 886 886 887 887 887 887 887 887 887 887 887 886 886 886 886 885 885 884 884 883 883 882 880 878 877 875 873 872 871 868 865 862 860 858 856 854 852 850 847 843 839 836 832 829 826 822 819 815 810 806 800 793 787 782 775 768 762 755 749 744 737 730 724 719 714 710 706 702 698 695 691 688 685 683
875 876 878 879 881 882 883 884 885 886 886 886 887 887 887 887 887 887 888 887 887 887 886 886 886 885 885 885 885 884 883 883 882 881 879 877 876 874 873 872 869 866 863 861 859 857 855 853 850 847 843 839 835 832 829 825 822 819 814 810 805 799 793 788 782 774 768 761 754 748 741 734 727 721 716 711 707 703 698 693 689 686 683 681 679
875 876 878 879 881 882 884 884 885 886 886 887 887 887 887 888 888 888 888 887 887 887 886 886 886 885 885 885 885 885 884 883 882 881 879 878 876 875 873 872 870 867 865 862 860 857 855 853 850 846 842 838 835 831 828 825 822 818 813 808 803 798 793 787 781 774 767 761 754 747 740 733 726 721 715 710 705 700 695 690 685 682 679 676 675
875 876 878 879 881 883 884 885 886 886 887 887 887 888 888 888 888 888 888 887 887 886 886 886 886 885 885 885 885 885 885 884 882 881 879 878 876 875 873 872 870 867 865 863 860 858 855 852 849 845 841 838 834 831 828 825 821 816 812 807 802 798 793 787 781 775 768 761 754 748 741 734 728 722 716 711 705 700 694 688 683 679 676 673 671
874 876 878 879 881 882 883 885 886 886 887 887 887 888 888 888 888 888 887 887 887 886 886 886 886 886 886 886 885 885 885 884 883 881 880 878 876 875 873 871 869 867 865 862 860 857 854 851 848 844 841 838 834 830 827 824 820 816 811 807 802 798 793 788 782 776 770 763 756 750 743 736 730 725 719 713 706 700 694 688 682 677 673 671 670
874 876 878 879 881 882 883 885 886 886 887 887 888 888 888 888 888 888 887 887 887 886 887 886 886 886 886 886 886 885 885 884 883 882 880 878 876 875 873 871 869 866 864 862 859 856 854 851 848 844 841 837 834 830 827 823 819 815 811 806 802 798 794 789 784 778 772 765 758 752 745 739 732 726 720 713 707 701 695 689 684 678 674 672 670
874 875 877 878 880 881 883 884 885 886 887 887 888 888 888 888 888 887 887 887 887 887 887 887 887 887 886 886 886 885 884 884 883 882 881 878 877 875 873 870 868 865 863 861 858 855 853 850 847 844 841 838 834 831 827 824 820 815 811 807 803 799 795 791 786 780 775 768 762 755 748 741 734 726 720 714 708 703 698 693 687 681 677 675 672
873 874 876 878 880 881 882 883 884 885 886 887 887 888 888 888 888 888 888 888 887 888 888 888 888 887 887 886 886 885 885 885 884 883 881 879 877 875 873 871 868 866 864 861 858 855 853 850 847 844 841 837 834 831 828 824 820 816 813 809 805 800 797 792 787 782 777 771 764 757 749 742 735 728 722 717 711 707 702 697 692 687 682 679 675
872 874 875 877 879 880 882 883 884 884 885 886 887 887 887 887 887 888 889 888 888 888 888 888 889 888 887 887 887 886 885 885 885 884 882 880 878 876 874 872 869 867 865 861 858 856 853 850 848 844 841 838 835 832 828 824 821 818 814 810 806 802 798 793 788 783 778 772 766 759 752 746 739 733 727 721 715 711 707 702 697 692 687 682 679
871 873 875 876 878 879 881 882 883 884 884 885 886 887 887 887 887 888 888 889 888 888 888 888 888 888 888 888 887 887 886 886 885 883 882 880 879 877 875 873 870 868 865 861 858 856 854 851 848 845 842 839 836 833 830 826 822 819 815 811 807 803 799 795 790 785 780 774 768 762 756 750 744 737 731 725 720 716 711 706 701 696 691 687 684
870 872 873 875 877 878 879 881 882 883 883 884 885 885 886 887 887 888 888 888 888 888 888 888 888 888 888 887 887 887 886 885 884 883 881 880 878 876 875 873 870 867 864 861 859 857 854 851 849 846 843 841 838 835 832 828 824 821 817 813 809 805 801 797 792 787 782 776 771 765 758 753 747 740 734 729 724 720 716 710 705 701 697 694 692
869 870 872 874 876 877 878 879 880 882 882 883 883 883 884 884 885 886 887 887 888 888 888 888 888 887 887 887 886 886 885 884 883 882 881 879 878 876 874 872 869 867 864 862 860 858 855 852 849 847 844 842 839 837 834 829 826 822 819 814 810 806 803 799 794 790 785 779 775 768 761 756 751 745 739 734 729 725 720 715 711 708 705 702 700
867 869 871 872 874 876 877 878 879 880 881 881 882 882 882 882 883 884 885 886 887 887 887 887 887 887 886 886 886 885 885 884 883 882 880 879 877 875 873 871 869 867 864 862 860 858 855 853 850 848 845 843 840 838 835 831 828 824 821 817 813 809 806 802 797 792 787 782 778 772 766 761 756 750 745 740 735 731 727 722 719 716 713 710 706
866 868 869 871 873 874 875 876 877 878 879 880 881 881 881 881 881 882 883 884 884 885 885 885 885 885 885 885 884 884 884 883 882 881 880 878 876 874 872 870 868 866 864 862 861 858 856 854 851 849 846 844 842 839 836 833 830 826 823 819 815 812 808 804 799 795 790 785 780 775 770 765 760 755 750 745 741 737 733 730 727 723 720 717 714
865 867 869 870 871 872 873 875 876 877 878 878 879 880 880 881 881 881 881 882 882 882 882 883 883 883 884 884 883 883 882 881 881 880 879 877 876 874 871 869 867 866 864 863 861 859 857 855 852 850 848 845 843 840 838 835 832 828 825 821 818 814 811 806 802 798 794 789 784 779 774 769 764 760 756 751 746 743 740 737 735 731 728 724 721
864 865 867 869 870 871 872 873 874 875 876 877 877 878 879 879 880 881 881 881 881 881 880 881 881 881 882 882 882 881 881 880 880 879 877 876 875 873 871 869 867 866 864 863 861 859 857 855 853 851 849 847 844 842 839 836 833 831 828 824 821 817 814 810 806 802 797 793 788 784 779 774 769 765 761 757 753 749 747 745 742 739 735 732 730
862 864 865 867 869 869 870 871 873 874 875 876 876 877 878 878 879 879 879 879 880 880 879 879 880 879 879 879 879 880 879 879 878 877 876 875 874 872 871 869 867 866 864 863 862 860 858 856 854 852 850 848 846 843 841 838 835 833 830 827 823 820 817 813 809 805 801 796 792 788 783 779 775 771 767 763 760 756 754 751 749 746 743 741 739
861 862 863 865 867 868 869 870 871 873 874 875 875 875 876 877 877 878 878 878 878 879 878 878 878 878 877 877 877 878 878 877 876 875 874 874 873 871 870 869 867 866 865 863 862 860 858 856 855 853 851 849 847 844 842 840 837 834 832 829 826 823 820 816 812 808 804 800 796 792 788 784 780 777 773 770 767 763 760 757 755 753 751 749 747
860 861 862 864 865 867 868 869 870 872 873 873 874 874 875 875 876 876 876 876 876 877 877 876 876 876 876 876 876 876 876 875 874 873 873 873 872 871 870 868 867 866 865 863 862 860 859 857 855 854 852 850 848 846 844 841 839 836 834 831 828 825 821 818 815 811 807 804 801 797 794 790 786 783 779 776 773 770 767 763 761 759 757 756 754
858 859 861 862 864 866 867 867 869 870 871 871 872 872 873 873 874 874 874 874 874 874 874 874 874 874 874 874 875 875 874 874 873 872 872 871 871 870 869 867 866 865 864 863 861 860 859 857 856 854 853 851 849 847 845 843 840 838 835 833 830 827 824 821 818 815 811 808 805 802 798 795 791 788 785 782 779 776 773 769 767 765 763 761 760
856 857 859 860 863 864 865 866 867 868 868 869 870 870 870 871 871 872 872 872 872 872 872 872 872 872 872 872 873 873 873 873 871 871 870 870 869 869 867 867 866 864 863 862 861 860 859 858 856 855 853 852 850 848 846 844 842 839 837 834 832 829 827 824 821 818 814 811 808 805 802 799 796 793 790 787 784 781 778 775 772 770 768 766 765
854 856 857 859 861 862 863 864 865 866 867 867 868 868 868 869 869 869 869 870 870 870 870 870 870 869 869 870 871 871 872 871 870 869 868 868 867 867 866 865 865 863 863 862 861 860 859 857 856 855 853 852 850 849 847 845 843 840 838 836 833 831 829 826 823 820 817 814 811 809 806 803 800 797 794 791 788 786 783 780 778 776 774 772 770
853 854 855 857 859 860 861 862 863 864 864 865 865 866 866 866 866 867 867 867 868 868 868 868 867 867 867 867 868 869 869 869 868 867 866 866 866 865 864 864 863 862 862 861 860 859 858 857 856 855 853 852 850 849 847 845 844 842 840 837 835 833 831 828 825 823 819 816 814 811 808 806 803 800 798 795 793 790 788 785 783 781 779 777 776
851 853 854 855 856 858 859 859 860 861 861 862 863 864 864 864 864 864 864 864 865 865 865 865 865 865 865 865 866 866 866 866 865 864 864 864 864 863 863 862 861 861 860 859 859 858 857 856 855 854 853 851 850 849 847 846 844 842 840 838 836 834 832 830 827 825 822 819 816 813 811 809 806 804 801 799 796 794 792 790 788 786 784 782 781
850 851 852 853 854 855 856 857 858 858 859 860 861 861 862 862 862 861 862 862 862 862 863 862 862 863 863 863 863 863 863 863 862 862 862 862 861 861 860 860 859 859 859 858 857 857 856 855 854 853 852 851 850 848 847 845 844 842 841 839 837 835 833 831 829 826 824 822 819 816 814 811 809 807 804 802 800 798 796 794 792 790 788 787 785
848 849 850 850 851 852 853 854 855 856 857 857 858 858 858 858 858 858 859 859 859 860 860 859 859 860 860 860 860 860 860 859 859 859 859 859 859 858 858 858 857 857 857 856 855 855 854 853 853 852 851 850 849 847 846 845 844 842 841 839 838 836 834 832 829 828 826 823 821 819 816 814 812 810 807 805 803 801 799 797 795 793 792 790 789
845 846 847 848 849 849 850 851 852 853 854 854 854 854 855 855 855 855 856 856 857 857 857 856 856 856 856 856 857 856 857 857 856 856 856 856 856 856 855 855 855 855 854 854 853 853 852 851 851 850 849 848 847 846 845 844 843 842 841 839 838 836 834 832 830 829 827 824 822 821 819 816 814 812 810 807 805 803 802 800 798 796 795 793 792
843 844 845 845 846 847 847 848 849 850 851 851 851 852 852 852 852 852 852 853 853 854 854 854 853 853 853 853 853 853 853 853 853 853 853 853 853 853 853 852 852 852 852 851 851 850 850 849 849 848 847 846 846 845 844 843 842 841 840 839 837 836 834 832 831 829 827 825 824 823 821 819 816 814 812 810 808 806 804 802 800 799 797 796 795
841 841 842 842 843 844 844 845 846 846 847 848 848 848 848 849 849 849 849 849 849 849 850 850 849 849 849 849 850 850 850 850 850 850 850 850 850 850 849 849 849 849 849 849 848 848 847 847 846 845 845 844 844 843 842 842 841 840 839 838 836 835 834 832 831 829 828 826 825 824 822 820 818 816 814 812 810 808 806 805 803 801 799 798 797
838 839 839 840 840 841 841 842 842 843 843 844 844 844 845 845 845 845 846 846 846 846 846 846 846 846 846 846 846 846 846 846 846 846 846 846 846 846 846 846 846 846 846 845 845 845 844 844 843 843 842 842 841 841 840 840 839 838 837 836 835 834 833 832 830 829 828 826 825 824 823 821 819 818 816 814 812 810 808 806 805 803 801 800 799
835 836 836 837 837 838 839 839 839 840 840 840 841 841 841 841 841 842 842 842 842 842 842 842 842 842 842 842 843 843 843 843 843 843 843 843 843 842 843 843 843 842 842 842 842 842 841 841 840 840 839 839 838 838 837 837 837 836 835 834 833 832 832 831 829 829 828 826 825 824 823 822 820 819 817 815 814 812 810 808 806 804 803 801 800